User: anonymous   Login
Location: Unspecified
(0.0000°N, 0.0000°E)
Time: 09:59:54
(UTC+00:00)
Language:

STARLINK-6378 - Orbit

View from above orbital plane
View from above orbital plane
View from above satellite
View from above satellite

Ground track
Ground track

The orbit is defined by the following mean orbital elements,

1 57347U          26145.56564490 +.00000000 +00000-0 +11737-4 0 00009
2 57347  43.0015 181.6551 0000892 265.0800  94.9950 15.27581442    03
Epoch (UTC): 25 May 2026 13:34:31
Eccentricity: 0.0000892
inclination: 43.0015°
perigee height: 482 km
apogee height: 484 km
right ascension of ascending node: 181.6551°
argument of perigee: 265.0800°
revolutions per day: 15.27581442
mean anomaly at epoch: 94.9950°

The dashed part of the orbit path shows where the satellite is in the earth's shadow,  

DLR